STARLINK-4370 (53231 NORAD) Tracking and Keplerian Element Data

This shows tracking and keplerian element data for the satellite.

Feedback or suggestion? Click here.




ElementValue
Catalog53231
NameSTARLINK-4370
Epoch Orbit1035
Epoch Day270.18822737
Epoch Year2022
RAAN330.0211
Inclination97.6541
Eccentricity0.0001539
Argument of Perigee93.4887
Mean Anonmoly266.6514
Mean Motion15.0127655
Decay Rate-2.014E-05
L11 53231U 22084AU 22270.18822737 -.00002014 00000+0 -15222-3 0 9994
L22 53231 97.6541 330.0211 0001539 93.4887 266.6514 15.01276550 10356

Live tracking and technical data element details for STARLINK-4370 (NORAD 53231). STARLINK-4370 can be tracked NOW for your location showing map with azimuth and elevation plus other details from your city location.

Track the satellite on the map from your city or location and see movement details for azimuth, elevation, latitude, longitude, range, height, and movement on the map or in text.







IsCatalogInMostPopularTable: catalog: 53231, numindb: 8
Update: records affected: 1



GetName: 53231 STARLINK-4370

Hit Count: updated at: Wed, 28 Sep 2022 23:13:56 GMT